Location: Bidart
(43.4376°N, 1.5913°W)
Time: 04:51:03
(UTC+00:00)

H-2A DEB - Pass Details

Date: 22 April 2026
Orbit: 584 x 592 km, 98.2° (Epoch: 15 May)

Event Time Altitude Azimuth Distance (km) Brightness Sun altitude
Exits shadow 02:34:42 15° 313° (NW) 1,631 ? -24.8°
Drops below altitude 10° 02:35:37 10° 322° (NW) 1,929 ? -24.6°
Sets 02:38:05 0° 335° (NNW) 2,837 ? -24.3°
